Weather History for KHSP - November, 2014

Change the Weather History Date:

Monday, November 24, 2014

  Actual Average Record
Temperature  
Mean Temperature 55 °F -  
Max Temperature 62 °F 43 °F 62 °F (2014)
Min Temperature 48 °F 30 °F 6 °F (2013)
Degree Days  
Heating Degree Days 10    
Growing Degree Days 5 (Base 50)    
Moisture  
Dew Point 43 °F    
Average Humidity 73    
Maximum Humidity 100    
Minimum Humidity 38    
Precipitation  
Precipitation 0.01 in - - ()
Sea Level Pressure  
Sea Level Pressure 29.72 in    
Wind  
Wind Speed 14 mph (SW)    
Max Wind Speed 30 mph    
Max Gust Speed 39 mph    
Visibility 7 miles    
Events Fog , Rain    
Averages and records for this station are not official NWS values.
T = Trace of Precipitation, MM = Missing Value Source: NWS Daily Summary

Daily Weather History Graph

Daily Weather History Graph

Search for Another Location

Airport or City:

Trip Planner

Search our weather history database for the weather conditions in past years. The results will help you decide how hot, cold, wet, or windy it might be!

Date:

Astronomy

Nov. 24, 2014 Rise Set
Actual Time 7:09 AM EST 5:02 PM EST
Civil Twilight 6:40 AM EST 5:31 PM EST
Nautical Twilight 6:08 AM EST 6:03 PM EST
Astronomical Twilight 5:37 AM EST 6:34 PM EST
Moon 9:00 AM EST (11/24) 7:22 PM EST (11/24)
Length of Visible Light 10h 50m
Length of Day
9h 52m
Waxing Crescent, 6% of the Moon is Illuminated
Nov 24
Waxing Crescent
Nov 29
First Quarter
Dec 6
Full
Dec 14
Last Quarter
Dec 21
New

Hourly Weather History & Observations

Time (EST) Temp. Dew Point Humidity Pressure Visibility Wind Dir Wind Speed Gust Speed Precip Events Conditions
12:15 AM 50.0 °F 50.0 °F 100% 29.67 in 0.2 mi South 15.0 mph 34.5 mph N/A Rain Heavy Rain
12:35 AM 49.5 °F 49.5 °F 100% 29.67 in 0.2 mi SSW 10.4 mph 23.0 mph N/A Rain Heavy Rain
12:55 AM 49.5 °F 49.5 °F 100% 29.67 in 0.2 mi SSW 17.3 mph 21.9 mph N/A Rain Heavy Rain
1:15 AM 49.6 °F 49.6 °F 100% 29.65 in 0.2 mi South 13.8 mph 21.9 mph N/A Rain Heavy Rain
1:35 AM 49.3 °F 49.3 °F 100% 29.64 in 0.2 mi South 10.4 mph 20.7 mph N/A Rain Rain
1:55 AM 49.5 °F 49.5 °F 100% 29.65 in 0.2 mi SSW 11.5 mph - 0.01 in Rain Heavy Rain
2:15 AM 50.0 °F 50.0 °F 100% 29.65 in 0.8 mi SSW 13.8 mph 26.5 mph N/A Rain Light Rain
2:35 AM 50.0 °F 50.0 °F 100% 29.66 in 4.0 mi South 16.1 mph 23.0 mph N/A   Overcast
2:55 AM 49.6 °F 49.6 °F 100% 29.66 in 0.5 mi South 10.4 mph 19.6 mph N/A Fog Fog
3:15 AM 49.3 °F 49.3 °F 100% 29.65 in 0.2 mi SSW 15.0 mph 20.7 mph N/A Fog Fog
3:35 AM 50.5 °F 50.5 °F 100% 29.65 in 10.0 mi SW 13.8 mph 23.0 mph N/A   Mostly Cloudy
3:55 AM 51.1 °F 51.1 °F 100% 29.65 in 10.0 mi SSW 13.8 mph 26.5 mph N/A   Mostly Cloudy
4:15 AM 51.3 °F 50.2 °F 96% 29.65 in 10.0 mi SW 12.7 mph 25.3 mph N/A   Mostly Cloudy
4:35 AM 50.9 °F 50.0 °F 97% 29.66 in 10.0 mi SW 11.5 mph 18.4 mph N/A   Scattered Clouds
4:55 AM 49.1 °F 49.1 °F 100% 29.66 in 0.8 mi SSW 8.1 mph 16.1 mph N/A   Overcast
5:15 AM 49.3 °F 49.3 °F 100% 29.66 in 0.8 mi South 8.1 mph - N/A   Overcast
5:35 AM 49.1 °F 49.1 °F 100% 29.67 in 0.2 mi South 9.2 mph - N/A Fog Fog
6:15 AM 49.1 °F 49.1 °F 100% 29.67 in 2.5 mi SSW 10.4 mph 16.1 mph N/A   Overcast
6:35 AM 49.1 °F 49.1 °F 100% 29.67 in 0.2 mi South 8.1 mph - N/A Fog Fog
6:55 AM 48.6 °F 48.6 °F 100% 29.68 in 0.2 mi South 6.9 mph - N/A   Unknown
7:35 AM 48.2 °F 48.2 °F 100% 29.68 in 0.2 mi South 13.8 mph - N/A   Unknown
7:55 AM 48.2 °F 48.2 °F 100% 29.68 in 0.2 mi South 12.7 mph 16.1 mph N/A   Unknown
8:15 AM 48.2 °F 48.2 °F 100% 29.69 in 0.2 mi South 12.7 mph 19.6 mph N/A   Unknown
8:35 AM 48.2 °F 48.2 °F 100% 29.70 in 0.2 mi South 11.5 mph 18.4 mph N/A   Unknown
8:55 AM 48.2 °F 48.2 °F 100% 29.70 in 0.2 mi South 12.7 mph 18.4 mph N/A   Unknown
9:15 AM 48.4 °F 48.4 °F 100% 29.70 in 0.2 mi SSW 9.2 mph 17.3 mph N/A Fog Fog
9:35 AM 48.6 °F 48.6 °F 100% 29.71 in 0.2 mi SSW 10.4 mph 17.3 mph N/A Fog Fog
9:55 AM 49.1 °F 49.1 °F 100% 29.71 in 1.2 mi SSW 9.2 mph - N/A   Overcast
10:15 AM 49.6 °F 49.6 °F 100% 29.71 in 7.0 mi SSW 9.2 mph 18.4 mph N/A   Mostly Cloudy
10:35 AM 52.0 °F 52.0 °F 100% 29.71 in 10.0 mi SSW 12.7 mph 18.4 mph N/A   Scattered Clouds
10:55 AM 52.7 °F 51.3 °F 95% 29.69 in 10.0 mi SSW 16.1 mph 24.2 mph N/A   Scattered Clouds
11:15 AM 54.0 °F 49.5 °F 85% 29.68 in 10.0 mi SSW 12.7 mph 28.8 mph N/A   Scattered Clouds
11:35 AM 55.2 °F 48.0 °F 77% 29.68 in 10.0 mi SSW 11.5 mph 23.0 mph N/A   Clear
11:55 AM 55.6 °F 48.0 °F 76% 29.68 in 10.0 mi SSW 9.2 mph 17.3 mph N/A   Clear
12:15 PM 56.7 °F 47.5 °F 71% 29.68 in 10.0 mi SSW 17.3 mph 24.2 mph N/A   Clear
12:35 PM 58.3 °F 44.4 °F 60% 29.67 in 10.0 mi SW 18.4 mph 27.6 mph N/A   Clear
12:55 PM 59.2 °F 44.2 °F 58% 29.67 in 10.0 mi SW 18.4 mph 26.5 mph N/A   Clear
1:15 PM 59.9 °F 43.3 °F 54% 29.67 in 10.0 mi SW 15.0 mph 24.2 mph N/A   Clear
1:35 PM 61.0 °F 43.5 °F 53% 29.67 in 10.0 mi SW 17.3 mph 25.3 mph N/A   Scattered Clouds
1:55 PM 61.2 °F 42.6 °F 51% 29.67 in 10.0 mi SW 17.3 mph 28.8 mph N/A   Clear
2:15 PM 61.7 °F 42.3 °F 49% 29.68 in 10.0 mi SW 15.0 mph 25.3 mph N/A   Scattered Clouds
2:35 PM 62.2 °F 41.2 °F 46% 29.68 in 10.0 mi SW 13.8 mph 28.8 mph N/A   Scattered Clouds
2:55 PM 62.4 °F 41.7 °F 47% 29.68 in 10.0 mi SW 19.6 mph 25.3 mph N/A   Scattered Clouds
3:15 PM 62.2 °F 38.8 °F 42% 29.70 in 10.0 mi SW 16.1 mph 29.9 mph N/A   Clear
3:35 PM 62.1 °F 36.7 °F 39% 29.71 in 10.0 mi WSW 17.3 mph 29.9 mph N/A   Scattered Clouds
4:15 PM 61.0 °F 36.0 °F 39% 29.71 in 10.0 mi WSW 17.3 mph 26.5 mph N/A   Clear
4:35 PM 60.1 °F 35.6 °F 40% 29.73 in 10.0 mi WSW 18.4 mph 25.3 mph N/A   Clear
4:55 PM 59.2 °F 34.2 °F 39% 29.74 in 10.0 mi WSW 19.6 mph 26.5 mph N/A   Clear
5:15 PM 58.6 °F 32.9 °F 38% 29.74 in 10.0 mi WSW 19.6 mph 29.9 mph N/A   Clear
5:35 PM 58.1 °F 32.7 °F 38% 29.74 in 10.0 mi WSW 20.7 mph 27.6 mph N/A   Clear
5:55 PM 58.3 °F 32.5 °F 38% 29.74 in 10.0 mi West 29.9 mph 38.0 mph N/A   Clear
6:35 PM 57.2 °F 32.4 °F 39% 29.76 in 10.0 mi WSW 23.0 mph 31.1 mph N/A   Clear
6:55 PM 57.2 °F 32.4 °F 39% 29.77 in 10.0 mi WSW 27.6 mph 39.1 mph N/A   Clear
7:15 PM 56.8 °F 33.3 °F 41% 29.78 in 10.0 mi WSW 25.3 mph 33.4 mph N/A   Clear
7:30 PM 56.5 °F 33.6 °F 42% 29.78 in 10.0 mi WSW 19.6 mph 31.1 mph N/A   Clear
7:55 PM 56.5 °F 34.3 °F 43% 29.78 in 10.0 mi WSW 25.3 mph 35.7 mph N/A   Clear
8:15 PM 55.6 °F 34.3 °F 45% 29.79 in 10.0 mi West 24.2 mph 32.2 mph N/A   Clear
8:35 PM 55.4 °F 34.3 °F 45% 29.81 in 10.0 mi WSW 20.7 mph 28.8 mph N/A   Clear
8:55 PM 55.0 °F 34.9 °F 47% 29.82 in 10.0 mi WSW 23.0 mph 27.6 mph N/A   Clear
9:15 PM 54.9 °F 35.6 °F 48% 29.84 in 10.0 mi WSW 19.6 mph 27.6 mph N/A   Clear
9:35 PM 54.3 °F 36.0 °F 50% 29.84 in 10.0 mi West 18.4 mph 29.9 mph N/A   Clear
9:55 PM 54.0 °F 36.5 °F 52% 29.84 in 10.0 mi West 18.4 mph 23.0 mph N/A   Clear
10:15 PM 53.2 °F 36.7 °F 53% 29.84 in 10.0 mi West 13.8 mph 19.6 mph N/A   Clear
10:35 PM 52.0 °F 37.2 °F 57% 29.85 in 10.0 mi West 11.5 mph 19.6 mph N/A   Clear
10:55 PM 51.1 °F 37.8 °F 60% 29.86 in 10.0 mi West 12.7 mph - N/A   Clear
11:15 PM 50.4 °F 37.8 °F 62% 29.86 in 10.0 mi West 13.8 mph 19.6 mph N/A   Clear
11:35 PM 50.0 °F 37.8 °F 63% 29.87 in 10.0 mi West 13.8 mph 18.4 mph N/A   Clear
11:55 PM 50.0 °F 30.9 °F 48% 29.87 in 10.0 mi West 15.0 mph 21.9 mph N/A   Scattered Clouds